Location: Alt?nova
(36.9167°N, 30.7667°E)
Time: 19:58:41
(UTC+00:00)

Daily predictions for brighter satellites

Satellite Brightness Start Highest point End
(mag) Time Altitude Azimuth Time Altitude Azimuth Time Altitude Azimuth
Cosmos 158 Rocket 3.8 16:14:03 10° S 16:18:50 64° ESE 16:23:39 10° NNE
Iridium 4 Rocket 3.0 16:15:29 10° N 16:19:40 63° E 16:24:04 10° S
Cosmos 1607 4.2 16:16:06 10° S 16:22:19 53° ESE 16:28:34 10° NE
SL-08 R/B 4.1 16:18:42 10° NE 16:23:04 32° E 16:27:23 10° SSE
KORONAS-FOTON 3.7 16:20:51 10° N 16:24:28 56° E 16:28:02 10° SSE
Sich 1 4.3 16:22:10 10° SE 16:25:17 20° E 16:28:27 10° NE
SeaSat 1 2.4 16:20:24 10° NNE 16:25:20 85° ESE 16:30:14 10° SSW
Helios 1A 4.0 16:26:11 10° NE 16:29:29 23° E 16:32:47 10° SSE
Cosmos 1464 Rocket 4.2 16:23:54 10° SSE 16:29:57 50° E 16:36:05 10° NNE
Cosmos 1328 Rocket 3.6 16:28:42 10° N 16:33:02 84° W 16:37:21 10° S
COSMO-SKYMED 1 4.0 16:29:11 10° N 16:33:17 43° WNW 16:37:23 10° SW
Tiangong -2.2 16:30:50 10° WSW 16:33:56 86° NNW 16:37:03 10° ENE
Cosmos 2369 Rocket 4.1 16:33:25 10° NNE 16:35:18 12° NE 16:37:11 10° ENE
USA 290 3.8 16:33:16 10° NNW 16:36:23 40° WSW 16:39:28 10° S
Helios 1B rocket 2.2 16:33:23 10° SSE 16:37:12 74° ENE 16:41:01 10° N
CZ-4 R/B 2.9 16:35:01 11° ESE 16:37:25 17° ENE 16:40:01 10° NNE
USA 234 3.4 16:33:52 10° SE 16:40:24 78° SW 16:47:00 10° NW
ARIANE 6 FM1 Upper Stage 3.7 16:37:04 10° S 16:40:33 25° ESE 16:44:05 10° ENE
Radarsat Rocket 4.3 16:34:37 10° SSE 16:41:25 82° WSW 16:47:32 10° NNW
Meteor 1-4 Rocket 3.5 16:42:34 10° NNW 16:45:01 36° W 16:47:26 10° SSW
CZ-4B R/B 4.2 16:45:00 14° ESE 16:47:13 22° ENE 16:50:23 10° NNE
TRACE 4.2 16:43:54 10° NNE 16:47:15 81° E 16:50:34 10° S
Landsat 7 4.0 16:43:10 10° S 16:47:50 76° WSW 16:52:33 10° NNW
Meteor 1-13 Rocket 4.5 16:42:25 10° N 16:48:00 49° ENE 16:53:27 10° SSE
Cosmos 1805 Rocket 4.1 16:44:43 10° SSE 16:48:36 34° E 16:52:32 10° NNE
Aureole 2 4.5 16:45:28 10° NNW 16:49:15 62° ENE 16:52:34 10° SSE
Longmarch 3A Rocket 4.5 16:48:46 10° SSW 16:53:08 31° SE 17:03:13 16° E
Resurs 01 Rocket 2.9 16:52:56 17° E 16:54:31 21° ENE 16:57:49 10° NNE
Cosmos 2084 Rocket 3.6 16:50:30 10° SSW 16:54:43 49° ESE 16:58:50 10° NE
Cosmos 1975 3.8 16:53:40 11° SE 16:56:36 24° E 16:59:44 10° NE
Cosmos 2034 Rocket 4.0 16:51:06 10° SSE 16:57:06 55° E 17:03:05 10° NNE
ACS3 Solar Sail 2.9 17:03:22 19° E 17:06:00 25° ENE 17:11:04 10° NNE
Cosmos 1707 3.8 17:04:48 10° NNW 17:08:10 42° W 17:11:32 10° SSW
SL-16 R/B 2.1 17:04:15 10° SSW 17:09:53 80° ESE 17:15:35 10° NNE
Meteor PRIRODA 3.3 17:08:48 23° SSE 17:10:39 58° ENE 17:13:52 10° N
ASTRO E2 3.3 17:13:07 10° WSW 17:16:01 29° S 17:16:23 28° SSE
SAR-Lupe-2 3.6 17:13:37 10° S 17:17:11 77° WSW 17:20:46 10° NNW
Cosmos 1805 3.0 17:16:48 10° S 17:20:26 83° W 17:24:05 10° N
Meteor 1-11 Rocket 4.3 17:16:53 10° SSW 17:22:22 58° W 17:27:50 10° N
Resurs 1-3 3.8 17:18:11 10° S 17:22:29 70° W 17:26:49 10° NNW
SPOT 1/Viking Rocket 3.5 17:17:26 10° SSE 17:22:37 85° WSW 17:27:47 10° NNW
Cosmos 1943 4.4 17:18:15 10° SSE 17:26:19 17° NE 17:27:48 10° NE
Cosmos 1315 Rocket 2.8 17:21:10 10° NNW 17:25:08 78° W 17:28:35 13° S
Cosmos 1428 Rocket 4.4 17:21:03 10° N 17:27:09 68° E 17:33:12 10° SSE
Cosmos 783 Rocket 4.4 17:22:18 10° S 17:27:32 75° ESE 17:32:47 10° NNE
Cosmos 2278 Rocket 4.1 17:23:36 10° NW 17:28:26 30° WSW 17:33:15 10° SSW
ADEOS 3.7 17:24:29 10° S 17:29:41 74° WSW 17:34:55 10° NNW
CSL-04 Rocket 3.9 17:30:21 36° ESE 17:31:46 45° ENE 17:36:46 10° N
CZ-4B DEB 4.2 17:27:31 10° SSE 17:33:02 87° WSW 17:38:33 10° NNW
USA 59 Rocket 3.3 17:29:57 10° W 17:33:05 16° WSW 17:36:50 10° SSW
CZ-4B R/B 3.3 17:31:22 35° SE 17:33:20 52° ENE 17:38:29 10° N
Meteor 1-21 4.4 17:30:01 10° N 17:35:39 50° ENE 17:37:24 38° SE
SL-14 R/B 3.0 17:33:42 10° N 17:37:31 71° E 17:37:36 70° E
CZ-4B R/B 4.2 17:41:17 10° S 17:45:51 48° W 17:50:33 10° NNW
ARGOS Delta rocket 4.4 17:42:04 10° S 17:46:55 56° W 17:51:32 10° NNW
USA 186 3.2 17:52:09 33° NNW 17:52:09 33° NNW 17:54:04 10° NNW
Cosmos 2195 Rocket 4.4 17:44:50 10° N 17:50:59 87° W 17:55:38 19° S
SJ-6B 4.4 17:48:39 13° SSW 17:51:26 31° W 17:54:39 10° NNW
Cosmos 2026 Rocket 3.8 17:49:56 10° N 17:56:06 86° E 17:58:57 34° S
Cosmos 1943 Rocket 4.3 17:55:16 10° NW 17:59:34 24° WSW 18:03:53 10° SSW
OAO 3 Rocket 3.3 17:55:34 10° W 18:00:03 61° SSW 18:00:03 61° SSW
Okean O Rocket 2.6 18:03:43 37° NNE 18:03:43 37° NNE 18:06:33 10° N
CARTOSAT-1 3.8 18:03:09 61° WSW 18:03:24 63° W 18:07:37 10° NNW
Gbstr 26 Del rocket 4.4 17:56:00 10° SSW 18:03:51 65° SE 18:06:17 45° ENE
Cosmos 1092 Rocket 4.0 18:00:17 10° N 18:06:38 81° W 18:09:40 33° S
USA 32 4.5 18:02:19 10° NNW 18:07:29 59° W 18:10:15 27° SSW
CSL-04 Debris 4.2 18:07:19 52° S 18:08:40 77° WSW 18:14:09 10° NNW
Tiangong 0.6 18:07:53 10° WNW 18:09:05 19° WNW 18:09:05 19° WNW
CZ-4 R/B 3.1 18:10:30 24° SW 18:11:39 29° W 18:15:05 10° NW
MOS 1-B 4.2 18:11:07 70° SSE 18:11:50 88° ENE 18:17:39 10° NNW
Cosmos 1656 Rocket 3.6 18:08:14 10° NNW 18:13:50 80° WSW 18:14:10 77° SSW
Cosmos 2297 3.5 18:09:39 10° NNW 18:15:20 90° SSW 18:15:21 89° SSE
Cosmos 1634 Rocket 4.4 18:11:51 10° SSW 18:18:04 64° W 18:24:22 10° N
Terra 4.3 18:22:17 11° NNE 18:22:17 11° NNE 18:22:29 10° NNE
Cosmos 2369 Rocket 2.2 18:14:30 10° NNW 18:19:41 71° N 18:19:41 71° N
NOSS 3-4 (A) 3.8 18:20:16 10° NNW 18:27:29 88° NE 18:28:32 70° SE
NOSS 3-4 (C) 3.8 18:20:22 10° NNW 18:27:35 88° ENE 18:28:36 71° SE
Resurs 01 Rocket 3.2 18:30:24 31° WSW 18:30:42 31° W 18:34:38 10° NW
ACS3 Solar Sail 2.6 18:48:37 46° SW 18:49:36 50° W 18:55:49 10° NNW
